This is the latest recevied weather packets stored in our database for station/object KB4KY. If no packets are shown the sender has not sent any weather packets the latest 10 day(s).
| Time | Temp. | Humidity | Pressure | Rain* | Wind** | Luminosity | Snow |
|---|---|---|---|---|---|---|---|
| 1777351621 | 18.33° C | 94% | 1008.6 hPa | 1.02 mm | - | - | - |
| 1777351319 | 18.33° C | 94% | 1008.4 hPa | 1.02 mm | - | - | - |
| 1777351019 | 17.78° C | 95% | 1008.2 hPa | 1.02 mm | - | - | - |
| 1777350719 | 17.78° C | 94% | 1008.4 hPa | 0.51 mm | - | - | - |
| 1777350421 | 17.78° C | 95% | 1008.5 hPa | 0.76 mm | - | - | - |
| 1777350162 | 17.78° C | 95% | 1008.7 hPa | 0.76 mm | - | - | - |
| 1777350120 | 17.78° C | 95% | 1008.7 hPa | 0.76 mm | - | - | - |
| 1777349517 | 17.78° C | 95% | 1008.9 hPa | 1.02 mm | - | - | - |
| 1777349221 | 17.78° C | 95% | 1009 hPa | 1.02 mm | - | - | - |
| 1777348917 | 17.78° C | 95% | 1009 hPa | 1.02 mm | - | - | - |
| 1777348619 | 17.78° C | 94% | 1009.2 hPa | 1.02 mm | - | - | - |
| 1777348318 | 17.78° C | 94% | 1009.3 hPa | 0.51 mm | - | - | - |
| 1777348032 | 17.78° C | 94% | 1009.1 hPa | 0.51 mm | - | - | - |
| 1777347421 | 17.78° C | 95% | 1009 hPa | 0.51 mm | - | - | - |
| 1777347117 | 17.78° C | 94% | 1009.3 hPa | 0.76 mm | - | - | - |
| 1777346819 | 17.78° C | 94% | 1009.5 hPa | 0.51 mm | - | - | - |
| 1777346516 | 17.78° C | 94% | 1009.1 hPa | 0.51 mm | - | - | - |
| 1777346449 | 17.78° C | 95% | 1009.6 hPa | 1.52 mm | - | - | - |
| 1777345917 | 17.78° C | 95% | 1009.3 hPa | 0.25 mm | - | - | - |
| 1777345614 | 17.78° C | 94% | 1009.7 hPa | 0.76 mm | - | - | - |
| 1777345013 | 17.78° C | 95% | 1009.6 hPa | 1.52 mm | - | - | - |
| 1777344716 | 17.78° C | 94% | 1009.7 hPa | 1.52 mm | - | - | - |
| 1777344420 | 17.78° C | 94% | 1009.8 hPa | 1.52 mm | - | - | - |
| 1777344115 | 18.33° C | 92% | 1010.1 hPa | 1.52 mm | - | - | - |
| 1777343845 | 18.33° C | 92% | 1010.5 hPa | 1.52 mm | - | - | - |
* Rain latest hour (hover to see other rain measurements)
** Current wind speed in m/s (hover to see current wind gust speed)